Weather History for Aswan, Egypt

Change the Weather History Date:

Wednesday, February 13, 2013

  Actual Average Record
Temperature  
Mean Temperature 64 °F -  
Max Temperature 79 °F 78 °F 91 °F (2012)
Min Temperature 49 °F 55 °F 46 °F (2005)
Degree Days  
Heating Degree Days 1    
Growing Degree Days 14 (Base 50)    
Moisture  
Dew Point 30 °F    
Average Humidity 28    
Maximum Humidity 41    
Minimum Humidity 11    
Precipitation  
Precipitation 0.00 in 0.00 in - ()
Sea Level Pressure  
Sea Level Pressure 29.98 in    
Wind  
Wind Speed 6 mph ()    
Max Wind Speed 9 mph    
Max Gust Speed -    
Visibility 6.0 miles    
Events      
Averages and records for this station are not official NWS values.
T = Trace of Precipitation, MM = Missing Value Source: Averaged Metar Reports

Daily Weather History Graph

Daily Weather History Graph

Search for Another Location

Airport:

Trip Planner

Search our weather history database for the weather conditions in past years. The results will help you decide how hot, cold, wet, or windy it might be!

Date:

Astronomy

Feb. 13, 2013 Rise Set
Actual Time 6:23 AM EET 5:42 PM EET
Civil Twilight 6:00 AM EET 6:06 PM EET
Nautical Twilight 5:33 AM EET 6:32 PM EET
Astronomical Twilight 5:06 AM EET 6:59 PM EET
Moon 8:09 AM EET (2/13) 8:52 PM EET (2/13)
Length of Visible Light 12h 05m
Length of Day
11h 19m
Waxing Crescent, 11% of the Moon is Illuminated
Feb 13
Waxing Crescent
Feb 17
First Quarter
Feb 25
Full
Mar 4
Last Quarter
Mar 11
New

Hourly Weather History & Observations

Time (EET) Temp. Dew Point Humidity Pressure Visibility Wind Dir Wind Speed Gust Speed Precip Events Conditions
12:00 AM 57.2 °F 24.8 °F 29% 30.01 in - North 4.6 mph - N/A   Clear
1:00 AM 55.4 °F 24.8 °F 31% 30.01 in - North 4.6 mph - N/A   Clear
2:00 AM 54 °F 25 °F 20% 30.01 in 6 mi North 6.9 mph - -  
2:00 AM 53.6 °F 24.8 °F 33% 29.98 in - North 6.9 mph - N/A   Clear
3:00 AM 53.6 °F 24.8 °F 33% 29.98 in - North 6.9 mph - N/A   Clear
4:00 AM 51.8 °F 24.8 °F 35% 30.01 in - North 5.8 mph - N/A   Clear
5:00 AM 50.0 °F 24.8 °F 37% 30.01 in - North 5.8 mph - N/A   Clear
6:00 AM 50.0 °F 26.6 °F 40% 30.01 in - North 5.8 mph - N/A   Clear
8:00 AM 52 °F 29 °F 28% 30.06 in 6 mi North 6.9 mph - -  
8:00 AM 51.8 °F 28.4 °F 41% 30.04 in - North 6.9 mph - N/A   Clear
9:00 AM 57.2 °F 30.2 °F 36% 30.06 in - North 9.2 mph - N/A   Clear
10:00 AM 64.4 °F 33.8 °F 32% 30.04 in - NNE 6.9 mph - N/A   Clear
11:00 AM 68.0 °F 37.4 °F 33% 30.04 in - North 6.9 mph - N/A   Clear
12:00 PM 71.6 °F 39.2 °F 31% 29.98 in - North 6.9 mph - N/A   Clear
1:00 PM 75.2 °F 35.6 °F 24% 29.95 in - North 5.8 mph - N/A   Clear
2:00 PM 79 °F 34 °F 11% 29.92 in 6 mi North 4.6 mph - -   Clear
2:00 PM 78.8 °F 33.8 °F 20% 29.95 in - North 4.6 mph - N/A   Clear
3:00 PM 78.8 °F 33.8 °F 20% 29.92 in - North 6.9 mph - N/A   Clear
4:00 PM 78.8 °F 33.8 °F 20% 29.92 in - North 4.6 mph - N/A   Clear
5:00 PM 77.0 °F 33.8 °F 21% 29.92 in - NNW 8.1 mph - N/A   Clear
6:00 PM 73.4 °F 32.0 °F 22% 29.92 in - North 9.2 mph - N/A   Clear
7:00 PM 69.8 °F 30.2 °F 23% 29.92 in - North 9.2 mph - N/A   Clear
8:00 PM 69 °F 29 °F 13% 29.93 in 6 mi North 9.2 mph - -  
8:00 PM 68.0 °F 28.4 °F 23% 29.92 in - North 9.2 mph - N/A   Clear
9:00 PM 66.2 °F 30.2 °F 26% 29.95 in - North 8.1 mph - N/A   Clear
10:00 PM 64.4 °F 32.0 °F 30% 29.95 in - North 6.9 mph - N/A   Clear
11:00 PM 62.6 °F 32.0 °F 32% 29.95 in - North 8.1 mph - N/A   Clear